Hourly Weather Bolshoe Bahovo

Today, 20 June, Sunday

Time Temperature Precipitation Wind Pressure Humidity
00:00 +19°C° 0 mm 2 mps 748 mmHg 91%
01:00 +19°C° 0 mm 2 mps 748 mmHg 92%
02:00 +18°C° 0 mm 2 mps 748 mmHg 93%
03:00 +19°C° 0 mm 2 mps 748 mmHg 93%
04:00 +19°C° 0 mm 2 mps 748 mmHg 93%
05:00 +19°C° 0 mm 2 mps 748 mmHg 93%
06:00 +21°C° 0 mm 2 mps 748 mmHg 88%
07:00 +23°C° 0 mm 2 mps 748 mmHg 83%
08:00 +25°C° 0 mm 3 mps 748 mmHg 78%
09:00 +26°C° 0 mm 3 mps 748 mmHg 74%
10:00 +27°C° 0 mm 3 mps 748 mmHg 70%
11:00 +28°C° 0 mm 4 mps 747 mmHg 66%
12:00 +28°C° 0 mm 3 mps 747 mmHg 64%
13:00 +28°C° 0 mm 3 mps 747 mmHg 62%
14:00 +29°C° 0 mm 3 mps 747 mmHg 60%
15:00 +28°C° 0 mm 3 mps 747 mmHg 62%
16:00 +28°C° 0 mm 3 mps 747 mmHg 65%
17:00 +28°C° 0 mm 3 mps 746 mmHg 68%
18:00 +27°C° 0 mm 2 mps 746 mmHg 73%
19:00 +25°C° 0 mm 2 mps 746 mmHg 78%
20:00 +23°C° 0 mm 2 mps 746 mmHg 83%
21:00 +23°C° 0 mm 2 mps 746 mmHg 84%
22:00 +21°C° 0 mm 2 mps 746 mmHg 85%
23:00 +20°C° 0 mm 2 mps 746 mmHg 86%

Tomorrow, 21 June, Monday

Time Temperature Precipitation Wind Pressure Humidity
00:00 +19°C° 0 mm 2 mps 746 mmHg 86%
01:00 +19°C° 0 mm 2 mps 746 mmHg 87%
02:00 +19°C° 0 mm 2 mps 746 mmHg 87%
03:00 +19°C° 0 mm 2 mps 746 mmHg 88%
04:00 +19°C° 0 mm 2 mps 746 mmHg 88%
05:00 +19°C° 0 mm 2 mps 746 mmHg 89%
06:00 +20°C° 0 mm 3 mps 746 mmHg 84%
07:00 +22°C° 0 mm 3 mps 746 mmHg 79%
08:00 +23°C° 0 mm 4 mps 746 mmHg 74%
09:00 +25°C° 0 mm 4 mps 746 mmHg 69%
10:00 +26°C° 0 mm 5 mps 746 mmHg 64%
11:00 +27°C° 0 mm 5 mps 745 mmHg 59%
12:00 +28°C° 0 mm 5 mps 745 mmHg 58%
13:00 +28°C° 0 mm 5 mps 745 mmHg 57%
14:00 +29°C° 0 mm 5 mps 745 mmHg 57%
15:00 +28°C° 0 mm 4 mps 745 mmHg 60%
16:00 +28°C° 0 mm 4 mps 744 mmHg 63%
17:00 +28°C° 0 mm 4 mps 744 mmHg 66%
18:00 +27°C° 0 mm 4 mps 744 mmHg 72%
19:00 +25°C° 0 mm 3 mps 744 mmHg 78%
20:00 +24°C° 0 mm 3 mps 744 mmHg 84%
21:00 +22°C° 0 mm 3 mps 744 mmHg 87%
22:00 +21°C° 0 mm 3 mps 744 mmHg 89%
23:00 +20°C° 0 mm 3 mps 744 mmHg 92%

Day after tomorrow, 22 June, Tuesday

Time Temperature Precipitation Wind Pressure Humidity
00:00 +20°C° 0 mm 3 mps 744 mmHg 93%
01:00 +20°C° 0 mm 3 mps 744 mmHg 94%
02:00 +19°C° 0 mm 3 mps 744 mmHg 96%
03:00 +19°C° 0 mm 3 mps 744 mmHg 95%
04:00 +19°C° 0 mm 3 mps 744 mmHg 94%
05:00 +20°C° 0 mm 3 mps 744 mmHg 94%
06:00 +21°C° 0 mm 4 mps 744 mmHg 88%
07:00 +23°C° 0 mm 4 mps 744 mmHg 82%
08:00 +25°C° 0 mm 5 mps 744 mmHg 75%
09:00 +26°C° 0 mm 5 mps 744 mmHg 71%
10:00 +28°C° 0 mm 5 mps 744 mmHg 66%
11:00 +29°C° 0 mm 5 mps 744 mmHg 61%
12:00 +29°C° 0 mm 5 mps 744 mmHg 59%
13:00 +30°C° 0 mm 5 mps 744 mmHg 58%
14:00 +30°C° 0 mm 5 mps 744 mmHg 57%
15:00 +30°C° 0 mm 5 mps 744 mmHg 60%
16:00 +30°C° 0 mm 5 mps 744 mmHg 63%
17:00 +30°C° 0 mm 4 mps 744 mmHg 65%
18:00 +28°C° 0 mm 4 mps 744 mmHg 72%
19:00 +26°C° 0 mm 3 mps 744 mmHg 78%
20:00 +25°C° 0 mm 3 mps 744 mmHg 84%
21:00 +24°C° 0 mm 3 mps 744 mmHg 86%
22:00 +22°C° 0 mm 3 mps 745 mmHg 88%
23:00 +21°C° 0 mm 3 mps 745 mmHg 91%

23 June, Wednesday

Time Temperature Precipitation Wind Pressure Humidity
00:00 +20°C° 0 mm 3 mps 745 mmHg 92%
01:00 +20°C° 0 mm 3 mps 745 mmHg 93%
02:00 +19°C° 0 mm 3 mps 745 mmHg 94%
03:00 +20°C° 0 mm 3 mps 745 mmHg 94%
04:00 +20°C° 0 mm 2 mps 745 mmHg 93%
05:00 +20°C° 0 mm 2 mps 745 mmHg 93%
06:00 +22°C° 0 mm 3 mps 745 mmHg 87%
07:00 +25°C° 0 mm 3 mps 745 mmHg 82%
08:00 +27°C° 0 mm 3 mps 745 mmHg 76%
09:00 +28°C° 0 mm 4 mps 746 mmHg 72%
10:00 +29°C° 0 mm 4 mps 746 mmHg 67%
11:00 +30°C° 0 mm 4 mps 746 mmHg 62%
12:00 +32°C° 0 mm 4 mps 746 mmHg 59%
13:00 +32°C° 0 mm 4 mps 746 mmHg 57%
14:00 +33°C° 0 mm 4 mps 746 mmHg 55%
15:00 +33°C° 0 mm 4 mps 745 mmHg 58%
16:00 +31°C° 0 mm 3 mps 745 mmHg 60%
17:00 +31°C° 0 mm 3 mps 745 mmHg 63%
18:00 +30°C° 0 mm 3 mps 745 mmHg 69%
19:00 +28°C° 0 mm 3 mps 745 mmHg 74%
20:00 +26°C° 0 mm 2 mps 745 mmHg 79%
21:00 +26°C° 0 mm 3 mps 745 mmHg 81%
22:00 +25°C° 0 mm 3 mps 745 mmHg 82%
23:00 +24°C° 0 mm 3 mps 746 mmHg 84%

24 June, Thursday

Time Temperature Precipitation Wind Pressure Humidity
00:00 +22°C° 0.1 mm 3 mps 746 mmHg 87%
01:00 +23°C° 0.1 mm 2 mps 746 mmHg 90%
02:00 +23°C° 0.1 mm 2 mps 746 mmHg 93%
03:00 +23°C° 0 mm 2 mps 746 mmHg 93%
04:00 +23°C° 0 mm 2 mps 746 mmHg 93%
05:00 +23°C° 0 mm 2 mps 746 mmHg 92%
06:00 +24°C° 0 mm 2 mps 746 mmHg 86%
07:00 +26°C° 0 mm 3 mps 746 mmHg 79%
08:00 +27°C° 0 mm 3 mps 746 mmHg 73%
09:00 +28°C° 0 mm 3 mps 746 mmHg 68%
10:00 +29°C° 0 mm 4 mps 746 mmHg 64%
11:00 +30°C° 0 mm 4 mps 746 mmHg 60%
12:00 +32°C° 0 mm 4 mps 746 mmHg 58%
13:00 +32°C° 0 mm 4 mps 746 mmHg 57%
14:00 +33°C° 0 mm 4 mps 746 mmHg 55%
15:00 +33°C° 0 mm 3 mps 746 mmHg 57%
16:00 +33°C° 0 mm 3 mps 746 mmHg 59%
17:00 +33°C° 0 mm 3 mps 746 mmHg 61%
18:00 +30°C° 0.1 mm 3 mps 745 mmHg 68%
19:00 +28°C° 0.1 mm 3 mps 745 mmHg 75%
20:00 +26°C° 0.1 mm 3 mps 745 mmHg 82%
21:00 +25°C° 0.1 mm 2 mps 745 mmHg 84%
22:00 +24°C° 0.1 mm 2 mps 745 mmHg 86%
23:00 +23°C° 0.1 mm 1 mps 745 mmHg 88%

25 June, Friday

Time Temperature Precipitation Wind Pressure Humidity
00:00 +23°C° 0 mm 2 mps 745 mmHg 89%
01:00 +23°C° 0 mm 2 mps 745 mmHg 90%
02:00 +21°C° 0 mm 3 mps 745 mmHg 91%
03:00 +21°C° 0 mm 3 mps 745 mmHg 91%
04:00 +21°C° 0 mm 3 mps 745 mmHg 91%
05:00 +21°C° 0 mm 3 mps 745 mmHg 90%
06:00 +24°C° 0 mm 3 mps 745 mmHg 85%
07:00 +26°C° 0 mm 4 mps 745 mmHg 80%
08:00 +27°C° 0 mm 4 mps 745 mmHg 75%
09:00 +28°C° 0 mm 4 mps 745 mmHg 70%
10:00 +30°C° 0 mm 4 mps 745 mmHg 65%
11:00 +32°C° 0 mm 4 mps 745 mmHg 60%
12:00 +32°C° 0 mm 4 mps 745 mmHg 58%
13:00 +33°C° 0 mm 4 mps 745 mmHg 55%
14:00 +33°C° 0 mm 4 mps 745 mmHg 53%
15:00 +33°C° 0 mm 4 mps 744 mmHg 57%
16:00 +31°C° 0 mm 3 mps 744 mmHg 62%
17:00 +31°C° 0 mm 3 mps 743 mmHg 66%
18:00 +29°C° 0.1 mm 3 mps 743 mmHg 70%
19:00 +28°C° 0.1 mm 3 mps 743 mmHg 74%
20:00 +26°C° 0.1 mm 2 mps 743 mmHg 79%
21:00 +25°C° 0.5 mm 3 mps 743 mmHg 83%
22:00 +23°C° 0.5 mm 4 mps 743 mmHg 87%
23:00 +22°C° 0.5 mm 4 mps 744 mmHg 91%
Show more